Regional Weather Roundup
Issued by NWS Albany, NY

Home | Current Version | Previous Version | Text Only | Print | Product List | Glossary On
Versions: 1 2 3 4 5 6 7 8 9 10 11 12 13 14 15 16 17 18 19 20 21 22 23 24 25 26 27 28
000
ASUS41 KALY 250310
RWRALY

NEW YORK STATE HOURLY WEATHER ROUNDUP
NATIONAL WEATHER SERVICE ALBANY NY
1100 PM EDT FRI OCT 24 2014

NOTE: "FAIR" INDICATES FEW OR NO CLOUDS BELOW 12,000 FEET WITH NO
SIGNIFICANT WEATHER AND/OR NO OBSTRUCTIONS TO VISIBILITY.

NYZ032-033-038>043-046>054-057>066-NYZ062>081-250400-
EAST


CITY           SKY/WX    TMP DP  RH WIND       PRES   REMARKS
ALBANY         CLOUDY    47  44  90 N5        29.87S
GLENS FALLS    CLEAR     43  42  97 CALM      29.85F FOG
POUGHKEEPSIE   CLEAR     44  41  89 CALM      29.86R
NEWBURGH       CLEAR     45  43  93 W3        29.85S
MONTGOMERY     PTCLDY    53  34  48 NW7       29.85R
WHITE PLAINS   CLEAR     47  45  93 CALM      29.83R
ISLIP          PTCLDY    49  45  86 W5        29.80S
NEW YORK CITY  PTCLDY    60  43  53 NW12      29.83R
CENTRAL PARK   CLEAR     58  40  51 NW7       29.86R
$$

NYZ005>009-017-018-044>046-055-056-250400-
CENTRAL


CITY           SKY/WX    TMP DP  RH WIND       PRES   REMARKS
FULTON         FAIR      46  38  73 SW7       29.91S
SYRACUSE       MOCLDY    46  38  73 W7        29.92S
ROME           PTCLDY    41  38  89 CALM      29.92S
ELMIRA         CLEAR     45  32  60 CALM      29.94R
BINGHAMTON     PTCLDY    46  29  51 NW7       29.91S
MONTICELLO     PTCLDY    48  36  61 NW10      29.89R
$$

NYZ026>034-041>043-250400-
NORTH


CITY           SKY/WX    TMP DP  RH WIND       PRES   REMARKS
WATERTOWN      PTCLDY    48  42  80 S5        29.87S
FORT DRUM      NOT AVBL
MASSENA        MOCLDY    48  44  86 SW10      29.84F
SARANAC LAKE   FOG       36  36 100 S3        29.83F VSB 1/4
PLATTSBURGH    CLEAR     42  41  96 CALM      29.81F
$$

NYZ001>004-010>016-019>021-250400-
WEST


CITY           SKY/WX    TMP DP  RH WIND       PRES   REMARKS
NIAGARA FALLS  MOCLDY    51  44  77 SW8       29.94S
BUFFALO        CLOUDY    50  45  83 S6        29.95S
DUNKIRK        CLOUDY    51  46  83 SW8       29.97S
JAMESTOWN      CLOUDY    48  39  71 W6        29.98S
WELLSVILLE     CLEAR     43  34  70 W8        29.97S
ROCHESTER      MOCLDY    47  43  86 SW6       29.93F
PENN YAN       MOCLDY    50  35  56 SW8       29.93F
$$

             KEY
       WCI = WIND CHILL INDEX
       VSB = VISIBILITY
       HX  = HEAT INDEX
$$



USA.gov is the U.S. government's official web portal to all federal, state and local government web resources and services.